sat.trackr.live / text

‹ back to catalog

STARLINK-35379

NORAD 66084 · 2025-235AC

PAYLOAD ACTIVE UNKNOWN

§ Identity

Operator
Country
US
Launch date
2025-10-19
Launch site
AFETR
Launch vehicle
Mass (kg)
RCS (m²)

Purposes: comms

External: N2YO · Heavens-Above · Gunter

§ Orbital elements

Epoch: 2026-05-25T03:23:18.841920Z

Period
94.11 min
Inclination
53.1608°
Eccentricity
0.0001823
Mean motion
15.30194420 rev/d
Perigee alt
474.0 km
Apogee alt
476.5 km
Semi-major
6,853.4 km
B*
9.7253e-4
RAAN
250.3586°
Arg perigee
82.4038°
Mean anomaly
277.7169°
Rev number
3,462

§ Raw data

STARLINK-353791 66084U 25235AC  26145.14119030  .00028550  00000+0  97253-3 0  99962 66084  53.1608 250.3586 0001823  82.4038 277.7169 15.30194420 34620

JSON: /api/v1/satellites/66084 · /tle

For live sub-satellite position, see the globe view (requires WebGL).

§ Visibility from observer

Set your observer location to see the next 7 days of passes ≥ 10°. The values pass through the URL so the page stays shareable.

No JS? Fill the form by hand. The geolocation button needs JavaScript.